Details From KTLH - Tallahassee Rgnl
To KBQK - BRUNSWICK GOLDEN ISLES
Flight Number -
Tags generated
Created
Modified
Stats Distance 158 nm / 292 km
Max Altitude 19,900 ft / 6,066 m
Waypoints 3
Social Downloads 1
Likes 0
Share VATSIM

Download

Looking for another format? Having issues loading an existing format? Contact us
Advertisement - Login to hide

Notes

Basic altitude profile: - Ascent Rate: 1500ft/min - Ascent Speed: 120kts - Cruise Altitude: 5000ft - Cruise Speed: 150kts - Descent Rate: 1000ft/min - Descent Speed: 100kts Options: - Use NATs: yes - Use PACOTS: yes - Use low airways: yes - Use high airways: no

Route

KTLH OTK KBQK

ID Type Via Altitude Latitude Longitude Leg Dist Tot Dist Heading (true) Name
O KTLH APT - 0 ft / 0 m 30.39734˚ -84.35137˚ - 0 nm - Tallahassee Rgnl
OTK VOR - 19,900 ft / 6,066 m 30.78044˚ -83.27972˚ 59 nm 59 nm 67° / 68° VALDOSTA VOR-DME
O KBQK APT - 0 ft / 0 m 31.25881˚ -81.46649˚ 97 nm 157 nm 72° / 73° BRUNSWICK GOLDEN ISLES

Altitude Profile

Advertisement - Login to hide

KTLH

Details ICAO KTLH (TLH)
Name Tallahassee Rgnl
Region United States
Timezone America/New_York (UTC-4.0)
Stats Elevation 81 ft / 25 m (AMSL)
Location 30.397340° -84.351373°
Runways 2
Magnetic Variation 4.749° W

METAR

KTLH 232035Z 30019G26KT 8SM -TSRA BKN022 BKN048CB BKN250 24/22 A3006

Decode

TAF

TAF AMD KTLH 232022Z 2320/2418 18010KT 6SM -SHRA VCTS BKN035CB TEMPO 2320/2323 27015G25KT 3SM TSRA SCT015 BKN020CB FM240300 16004KT P6SM SCT030 FM240700 VRB02KT 2SM BR SCT008 FM241400 25007KT P6SM VCFG SCT008

Decode

Departure Runways

ID Width Length Bearing (true) Bearing (mag) Surface Threshold Offset Overrun Length
09 150 ft / 46 m 7,986 ft / 2,434 m 89.47° 94.22° Asphalt 0 ft / 0 m 200 ft / 61 m
18 150 ft / 46 m 6,096 ft / 1,858 m 179.49° 184.24° Asphalt 0 ft / 0 m 151 ft / 46 m
27 150 ft / 46 m 7,986 ft / 2,434 m 269.48° 274.23° Asphalt 0 ft / 0 m 200 ft / 61 m
36 150 ft / 46 m 6,096 ft / 1,858 m 359.49° 4.24° Asphalt 0 ft / 0 m 161 ft / 49 m

KBQK

Details ICAO KBQK (BQK)
Name BRUNSWICK GOLDEN ISLES
Region United States
Timezone America/New_York (UTC-4.0)
Stats Elevation 26 ft / 8 m (AMSL)
Location 31.258808° -81.466494°
Runways 1
Magnetic Variation 6.758° W

METAR

KBQK 232035Z AUTO 16008KT 10SM CLR 27/21 A3007 RMK AO2

Decode

TAF

Not found

Destination Runways

ID Width Length Bearing (true) Bearing (mag) Surface Threshold Offset Overrun Length
07 150 ft / 46 m 7,994 ft / 2,437 m 65.24° 72.00° Asphalt 0 ft / 0 m 200 ft / 61 m
25 150 ft / 46 m 7,994 ft / 2,437 m 245.25° 252.01° Asphalt 0 ft / 0 m 900 ft / 274 m

Approach Navaids

Runway Type Ident Frequency Range Bearing (true) Bearing (mag) Slope Elevation
07 Localiser IBQK 108.50 MHz 18 nm / 33 km 64.93° 71.69° - 26 ft / 8 m (AMSL)
07 Glidescope IBQK 108.50 MHz 10 nm / 19 km 65.25° 72.01° 3.00° 22 ft / 7 m (AMSL)